Showing default

COSMOS 256, 3576

Orbit data source: Space-Track

COSMOS 256, 3576 is a payload satellite owned by OKB-10 (CIS) in LEO that was launched on Sat, 30 Nov 1968 UTC via a KOSMOS 11K65M launch vehicle from the Plesetsk Missile And Space Complex (PKMTR). Payload-class satellites include a variety of spacecraft equipped with specific instruments for various scientific and technological missions. These include communications satellites like Starlink; space stations such as the ISS; scientific satellites like the Hubble; Earth observation satellites from companies like Planet Labs, Umbra, and HawkEye 360; GPS; miniature CubeSats for education and research; and military/defense satellites.

Loading next visibility...
Identifier
3576, 1968-106A
Orbit
LEO
Country
Flag of CISCIS
Related business
Manufacturer
OKB-10
Mission
Spacecraft
Bus & Motor
KAUR-1 11F621, Unknown motor
Mass
800 kg wet, 800 kg dry
Launch date (UTC)
1968-11-30 (57 years ago)
Launch vehicle
KOSMOS 11K65M
Launch site
Plesetsk Missile And Space Complex (PKMTR)
Object type
Payload
Rocket body
Debris
Shape & HBR
Unknown
Radar Cross Section
Large (>1 m²)

Expand to show TLE details & history
Last TLE update: 7 hours ago

TLE from 7 hours ago
0 COSMOS 256
1  3576U 68106A   25312.72839359  .00000253  00000-0  70613-3 0  9991
2  3576  74.0501  61.6504 0032833 109.0511  66.9438 13.16874582736678
Epoch: 2025-11-08T17:28Z
TLE epoch observation values (Epoch: 2025-11-08T17:28:53.206Z)
Latitude
3.43267°
Longitude
-69.70243°
Altitude
1,189.095 km
Speed
7.264 km/s
True Right ascension
16h 02m 41s
True Declination
3° 24' 48"
Sunlit
Object was in daylight at epoch
Visualization orbit readout
Latitude
Unknown
Longitude
Unknown
Altitude
Unknown
Speed
Unknown
Apparent Right ascension
Unknown
Apparent Declination
Unknown
Sunlit
N/A
Visualization observer readout
Local Sidereal Time
20:35:52
Azimuth
Unknown
Elevation
Unknown
Doppler factor
Unknown
Orbital elements
Apogee altitude
1,219.301 km
Perigee altitude
1,169.575 km
Semi-major axis
7,572.575 km
Eccentricity
0.00328
Inclination
74.0501°
RAAN
61.6504°
Arg. of periapsis
109.0511°
True anomaly
67.29054°
Mean anomaly
66.9438°
Eccentric anomaly
67.11711°
Mean motion
3.29365 °/min
Orbital period
109.3 mins
BSTAR
0.00070613
Loading maneuver chart data...
Computing Atmospheric mass density...
Loading historical data...
Loading historical data...
Loading historical data...
Loading historical data...
Loading historical data...
Loading historical data...
Loading historical data...
Other satellites on launch #106 in the year 1968 (1968-11-30 UTC)

Documentation

Showing up to 5 results
|